N4279U KSGF-KMCI

Flight info

Callsign N4279U
Flight time 0h 52m
Altitude 4000
Route TYGER7
Aircraft BE58/L-VGD/C

Departure

Time 2026-05-07 15:13
Airport Springfield Branson National Airport (KSGF)

Arrival

Time 2026-05-07 16:05
Airport Kansas City International Airport (KMCI)
Time Latitude Longitude Altitude Speed Heading
2026-05-07 14:53 37.24881 -93.37959 1262 ft 0 kts 110°
2026-05-07 15:09 37.24880 -93.37953 1262 ft 0 kts 98°
2026-05-07 15:09 37.24896 -93.37949 1263 ft 0 kts 319°
2026-05-07 15:10 37.24916 -93.37989 1261 ft 9 kts 294°
2026-05-07 15:11 37.24948 -93.38065 1259 ft 10 kts 336°
2026-05-07 15:11 37.25029 -93.38036 1260 ft 14 kts 22°
2026-05-07 15:11 37.25151 -93.37973 1258 ft 22 kts 20°
2026-05-07 15:11 37.25286 -93.37916 1260 ft 16 kts 351°
2026-05-07 15:12 37.25308 -93.37936 1259 ft 8 kts 303°
2026-05-07 15:12 37.25326 -93.38014 1257 ft 10 kts 261°
2026-05-07 15:12 37.25119 -93.38146 1258 ft 70 kts 202°
2026-05-07 15:12 37.24515 -93.38457 1305 ft 108 kts 202°
2026-05-07 15:13 37.23802 -93.38844 1649 ft 115 kts 203°
2026-05-07 15:13 37.23027 -93.39281 1926 ft 128 kts 204°
2026-05-07 15:13 37.22182 -93.39751 2206 ft 137 kts 204°
2026-05-07 15:13 37.21281 -93.40239 2485 ft 144 kts 204°
2026-05-07 15:14 37.20329 -93.40740 2765 ft 149 kts 204°
2026-05-07 15:14 37.19324 -93.41113 3038 ft 154 kts 188°
2026-05-07 15:14 37.18281 -93.40839 3313 ft 158 kts 156°
2026-05-07 15:14 37.17360 -93.40080 3590 ft 160 kts 139°
2026-05-07 15:15 37.16662 -93.38994 3863 ft 162 kts 117°
2026-05-07 15:15 37.16345 -93.37646 4052 ft 168 kts 96°
2026-05-07 15:15 37.16242 -93.36092 3971 ft 185 kts 94°
2026-05-07 15:15 37.16286 -93.34463 3985 ft 191 kts 71°
2026-05-07 15:16 37.17090 -93.33154 4017 ft 192 kts 39°
2026-05-07 15:16 37.18267 -93.32376 4062 ft 192 kts 16°
2026-05-07 15:16 37.19583 -93.32222 4114 ft 190 kts 355°
2026-05-07 15:16 37.20915 -93.32368 4073 ft 195 kts 353°
2026-05-07 15:17 37.22295 -93.32535 3961 ft 200 kts 353°
2026-05-07 15:17 37.23683 -93.32735 3978 ft 198 kts 350°
2026-05-07 15:17 37.25035 -93.33059 3980 ft 196 kts 348°
2026-05-07 15:17 37.26363 -93.33410 3981 ft 194 kts 347°
2026-05-07 15:18 37.27680 -93.33768 3982 ft 193 kts 347°
2026-05-07 15:18 37.28987 -93.34120 3980 ft 194 kts 347°
2026-05-07 15:18 37.30315 -93.34474 3980 ft 194 kts 347°
2026-05-07 15:18 37.31636 -93.34826 3981 ft 193 kts 347°
2026-05-07 15:19 37.32960 -93.34753 3988 ft 195 kts 18°
2026-05-07 15:19 37.34237 -93.34143 3982 ft 196 kts 20°
2026-05-07 15:19 37.35538 -93.33701 3968 ft 195 kts 356°
2026-05-07 15:19 37.36832 -93.34148 3979 ft 193 kts 337°
2026-05-07 15:20 37.38065 -93.34798 3981 ft 193 kts 335°
2026-05-07 15:20 37.39304 -93.35470 3980 ft 193 kts 335°
2026-05-07 15:20 37.40541 -93.36147 3975 ft 193 kts 335°
2026-05-07 15:20 37.41755 -93.36816 3973 ft 192 kts 335°
2026-05-07 15:21 37.42979 -93.37492 3972 ft 192 kts 335°
2026-05-07 15:21 37.44209 -93.38173 3970 ft 192 kts 334°
2026-05-07 15:21 37.45436 -93.38853 3968 ft 191 kts 334°
2026-05-07 15:21 37.46643 -93.39523 3967 ft 191 kts 335°
2026-05-07 15:22 37.47863 -93.40201 3967 ft 191 kts 335°
2026-05-07 15:22 37.49083 -93.40878 3966 ft 191 kts 335°
2026-05-07 15:22 37.50309 -93.41559 3966 ft 191 kts 335°
2026-05-07 15:22 37.51517 -93.42231 3967 ft 192 kts 334°
2026-05-07 15:23 37.52745 -93.42915 3968 ft 192 kts 335°
2026-05-07 15:23 37.53982 -93.43602 3965 ft 193 kts 334°
2026-05-07 15:23 37.55199 -93.44280 3963 ft 193 kts 335°
2026-05-07 15:23 37.56437 -93.44969 3961 ft 193 kts 334°
2026-05-07 15:24 37.57653 -93.45647 3959 ft 192 kts 334°
2026-05-07 15:24 37.58881 -93.46331 3958 ft 192 kts 334°
2026-05-07 15:24 37.60110 -93.47016 3957 ft 192 kts 334°
2026-05-07 15:24 37.61341 -93.47703 3957 ft 192 kts 334°
2026-05-07 15:25 37.62566 -93.48386 3955 ft 192 kts 334°
2026-05-07 15:25 37.63781 -93.49064 3956 ft 192 kts 334°
2026-05-07 15:25 37.65015 -93.49753 3957 ft 192 kts 334°
2026-05-07 15:25 37.66235 -93.50435 3959 ft 192 kts 334°
2026-05-07 15:26 37.67459 -93.51118 3958 ft 193 kts 334°
2026-05-07 15:26 37.68691 -93.51807 3958 ft 193 kts 334°
2026-05-07 15:26 37.69925 -93.52496 3957 ft 193 kts 334°
2026-05-07 15:26 37.71156 -93.53185 3957 ft 193 kts 334°
2026-05-07 15:27 37.72384 -93.53870 3956 ft 193 kts 334°
2026-05-07 15:27 37.73595 -93.54549 3955 ft 192 kts 334°
2026-05-07 15:27 37.74828 -93.55240 3956 ft 192 kts 334°
2026-05-07 15:27 37.76049 -93.55924 3956 ft 192 kts 334°
2026-05-07 15:28 37.77277 -93.56612 3956 ft 192 kts 334°
2026-05-07 15:28 37.78508 -93.57302 3955 ft 192 kts 333°
2026-05-07 15:28 37.79724 -93.57983 3953 ft 193 kts 334°
2026-05-07 15:28 37.80955 -93.58675 3954 ft 193 kts 333°
2026-05-07 15:29 37.82183 -93.59364 3953 ft 193 kts 333°
2026-05-07 15:29 37.83419 -93.60058 3955 ft 193 kts 334°
2026-05-07 15:29 37.84655 -93.60752 3955 ft 193 kts 334°
2026-05-07 15:29 37.85885 -93.61443 3956 ft 193 kts 334°
2026-05-07 15:30 37.87100 -93.62125 4007 ft 190 kts 333°
2026-05-07 15:30 37.88319 -93.62811 4022 ft 191 kts 333°
2026-05-07 15:30 37.89527 -93.63490 4023 ft 192 kts 334°
2026-05-07 15:30 37.90754 -93.64180 4022 ft 193 kts 333°
2026-05-07 15:31 37.91990 -93.64876 4021 ft 193 kts 333°
2026-05-07 15:31 37.93215 -93.65565 4024 ft 193 kts 333°
2026-05-07 15:31 37.94449 -93.66260 4024 ft 193 kts 333°
2026-05-07 15:31 37.95687 -93.66958 4027 ft 193 kts 333°
2026-05-07 15:32 37.96916 -93.67651 4027 ft 193 kts 333°
2026-05-07 15:32 37.98145 -93.68343 4028 ft 193 kts 333°
2026-05-07 15:32 37.99370 -93.69035 4026 ft 194 kts 332°
2026-05-07 15:32 38.00601 -93.69729 4026 ft 194 kts 332°
2026-05-07 15:33 38.01837 -93.70426 4025 ft 194 kts 332°
2026-05-07 15:33 38.03075 -93.71126 4025 ft 194 kts 332°
2026-05-07 15:33 38.04306 -93.71820 4025 ft 194 kts 332°
2026-05-07 15:33 38.05548 -93.72523 4024 ft 194 kts 332°
2026-05-07 15:34 38.06777 -93.73216 4023 ft 194 kts 332°
2026-05-07 15:34 38.08004 -93.73910 4022 ft 194 kts 332°
2026-05-07 15:34 38.09238 -93.74609 4022 ft 193 kts 332°
2026-05-07 15:34 38.10468 -93.75305 4023 ft 193 kts 332°
2026-05-07 15:35 38.11711 -93.76009 4024 ft 193 kts 332°
2026-05-07 15:35 38.12936 -93.76703 4025 ft 193 kts 332°
2026-05-07 15:35 38.14160 -93.77396 4025 ft 194 kts 332°
2026-05-07 15:35 38.15402 -93.78100 4022 ft 194 kts 332°
2026-05-07 15:36 38.16632 -93.78798 4021 ft 194 kts 332°
2026-05-07 15:36 38.17863 -93.79496 4023 ft 194 kts 332°
2026-05-07 15:36 38.19093 -93.80194 4024 ft 194 kts 332°
2026-05-07 15:36 38.20321 -93.80891 4023 ft 193 kts 332°
2026-05-07 15:37 38.21565 -93.81598 4023 ft 193 kts 332°
2026-05-07 15:37 38.22790 -93.82295 4024 ft 193 kts 332°
2026-05-07 15:37 38.24012 -93.82988 4023 ft 193 kts 332°
2026-05-07 15:37 38.25251 -93.83692 4023 ft 193 kts 332°
2026-05-07 15:38 38.26469 -93.84385 4023 ft 193 kts 332°
2026-05-07 15:38 38.27699 -93.85085 4024 ft 193 kts 332°
2026-05-07 15:38 38.28926 -93.85783 4022 ft 193 kts 332°
2026-05-07 15:38 38.30138 -93.86474 4022 ft 193 kts 331°
2026-05-07 15:39 38.31367 -93.87176 4020 ft 192 kts 330°
2026-05-07 15:39 38.32293 -93.88329 4069 ft 182 kts 303°
2026-05-07 15:39 38.33142 -93.89430 4307 ft 176 kts 316°
2026-05-07 15:39 38.34184 -93.90367 4035 ft 188 kts 323°
2026-05-07 15:40 38.35292 -93.91241 4033 ft 183 kts 322°
2026-05-07 15:40 38.36357 -93.92084 4033 ft 181 kts 327°
2026-05-07 15:40 38.37464 -93.92816 4035 ft 179 kts 329°
2026-05-07 15:40 38.38612 -93.93469 4035 ft 178 kts 332°
2026-05-07 15:41 38.39749 -93.94078 4034 ft 178 kts 332°
2026-05-07 15:41 38.40887 -93.94678 4032 ft 177 kts 333°
2026-05-07 15:41 38.42070 -93.95181 4019 ft 180 kts 345°
2026-05-07 15:41 38.43254 -93.95623 4006 ft 177 kts 333°
2026-05-07 15:42 38.44406 -93.96214 3999 ft 177 kts 332°
2026-05-07 15:42 38.45541 -93.96796 3992 ft 177 kts 333°
2026-05-07 15:42 38.46692 -93.97389 3983 ft 177 kts 332°
2026-05-07 15:42 38.47827 -93.97970 3978 ft 177 kts 333°
2026-05-07 15:43 38.48978 -93.98563 3967 ft 177 kts 333°
2026-05-07 15:43 38.50115 -93.99152 3955 ft 177 kts 333°
2026-05-07 15:43 38.51268 -93.99751 3946 ft 177 kts 333°
2026-05-07 15:43 38.52405 -94.00344 3939 ft 178 kts 333°
2026-05-07 15:44 38.53561 -94.00948 3935 ft 178 kts 333°
2026-05-07 15:44 38.54693 -94.01533 3974 ft 175 kts 332°
2026-05-07 15:44 38.55828 -94.02114 3999 ft 174 kts 333°
2026-05-07 15:44 38.56953 -94.02695 3996 ft 175 kts 333°
2026-05-07 15:45 38.58091 -94.03284 3996 ft 175 kts 332°
2026-05-07 15:45 38.59215 -94.03866 3997 ft 175 kts 332°
2026-05-07 15:45 38.60344 -94.04452 3998 ft 175 kts 333°
2026-05-07 15:45 38.61493 -94.05045 3999 ft 175 kts 333°
2026-05-07 15:46 38.63754 -94.06198 3995 ft 176 kts 333°
2026-05-07 15:46 38.64894 -94.06773 3996 ft 176 kts 333°
2026-05-07 15:46 38.66050 -94.07351 3996 ft 176 kts 333°
2026-05-07 15:47 38.67192 -94.07919 3997 ft 176 kts 332°
2026-05-07 15:47 38.68339 -94.08487 3999 ft 176 kts 333°
2026-05-07 15:47 38.69435 -94.09135 3996 ft 175 kts 327°
2026-05-07 15:47 38.70526 -94.09842 3992 ft 175 kts 327°
2026-05-07 15:48 38.71623 -94.10541 3992 ft 175 kts 328°
2026-05-07 15:48 38.72710 -94.11227 3992 ft 175 kts 328°
2026-05-07 15:48 38.73802 -94.11911 3992 ft 175 kts 328°
2026-05-07 15:48 38.74908 -94.12601 3992 ft 175 kts 328°
2026-05-07 15:49 38.76002 -94.13283 3992 ft 174 kts 328°
2026-05-07 15:49 38.77097 -94.13963 3993 ft 174 kts 328°
2026-05-07 15:49 38.78182 -94.14637 3988 ft 175 kts 328°
2026-05-07 15:49 38.79283 -94.15321 3984 ft 175 kts 328°
2026-05-07 15:50 38.80378 -94.16001 3980 ft 175 kts 328°
2026-05-07 15:50 38.81480 -94.16685 3979 ft 175 kts 328°
2026-05-07 15:50 38.82587 -94.17374 3977 ft 176 kts 328°
2026-05-07 15:50 38.83689 -94.18058 3976 ft 175 kts 328°
2026-05-07 15:51 38.84779 -94.18736 3979 ft 176 kts 328°
2026-05-07 15:51 38.85905 -94.19438 3979 ft 180 kts 328°
2026-05-07 15:51 38.87035 -94.20142 3982 ft 184 kts 328°
2026-05-07 15:51 38.88202 -94.20867 3982 ft 187 kts 328°
2026-05-07 15:52 38.89372 -94.21596 3981 ft 188 kts 328°
2026-05-07 15:52 38.90565 -94.22339 3982 ft 191 kts 328°
2026-05-07 15:52 38.91775 -94.23092 3984 ft 193 kts 329°
2026-05-07 15:52 38.92977 -94.23841 3979 ft 194 kts 329°
2026-05-07 15:53 38.94200 -94.24603 3982 ft 195 kts 329°
2026-05-07 15:53 38.95421 -94.25363 3983 ft 195 kts 329°
2026-05-07 15:53 38.96655 -94.26135 3985 ft 196 kts 329°
2026-05-07 15:53 38.97878 -94.26898 3983 ft 197 kts 329°
2026-05-07 15:54 38.99115 -94.27673 3982 ft 197 kts 328°
2026-05-07 15:54 39.00343 -94.28439 3983 ft 197 kts 328°
2026-05-07 15:54 39.01581 -94.29214 3981 ft 197 kts 328°
2026-05-07 15:54 39.02812 -94.29984 3981 ft 197 kts 328°
2026-05-07 15:55 39.04045 -94.30755 3981 ft 197 kts 328°
2026-05-07 15:55 39.05286 -94.31530 3978 ft 197 kts 328°
2026-05-07 15:55 39.06529 -94.32308 3980 ft 197 kts 328°
2026-05-07 15:55 39.07766 -94.33083 3982 ft 197 kts 328°
2026-05-07 15:56 39.08995 -94.33852 3982 ft 197 kts 328°
2026-05-07 15:56 39.10234 -94.34630 3982 ft 197 kts 329°
2026-05-07 15:56 39.11470 -94.35405 3979 ft 198 kts 329°
2026-05-07 15:56 39.12709 -94.36182 3977 ft 197 kts 329°
2026-05-07 15:57 39.13945 -94.36957 3978 ft 197 kts 329°
2026-05-07 15:57 39.15183 -94.37734 3977 ft 197 kts 329°
2026-05-07 15:57 39.16408 -94.38503 3976 ft 197 kts 329°
2026-05-07 15:57 39.17655 -94.39286 3975 ft 197 kts 329°
2026-05-07 15:58 39.18877 -94.40053 3976 ft 197 kts 329°
2026-05-07 15:58 39.20119 -94.40833 3977 ft 197 kts 329°
2026-05-07 15:58 39.21350 -94.41607 3976 ft 197 kts 328°
2026-05-07 15:58 39.22577 -94.42381 3973 ft 197 kts 329°
2026-05-07 15:59 39.23595 -94.43478 3976 ft 188 kts 305°
2026-05-07 15:59 39.24377 -94.44829 3975 ft 188 kts 301°
2026-05-07 15:59 39.25143 -94.46192 3974 ft 188 kts 301°
2026-05-07 15:59 39.25911 -94.47559 3973 ft 189 kts 302°
2026-05-07 16:00 39.26687 -94.48938 3972 ft 189 kts 302°
2026-05-07 16:00 39.27187 -94.50451 3923 ft 186 kts 279°
2026-05-07 16:00 39.27363 -94.52156 3665 ft 195 kts 274°
2026-05-07 16:00 39.27512 -94.53922 3398 ft 201 kts 274°
2026-05-07 16:01 39.27660 -94.55650 3126 ft 183 kts 274°
2026-05-07 16:01 39.27788 -94.57159 2887 ft 157 kts 273°
2026-05-07 16:01 39.27890 -94.58443 2686 ft 131 kts 272°
2026-05-07 16:01 39.27978 -94.59516 2525 ft 113 kts 271°
2026-05-07 16:02 39.28059 -94.60485 2379 ft 101 kts 272°
2026-05-07 16:02 39.28130 -94.61311 2252 ft 85 kts 271°
2026-05-07 16:02 39.28193 -94.62057 2152 ft 82 kts 270°
2026-05-07 16:02 39.28254 -94.62794 2044 ft 83 kts 271°
2026-05-07 16:03 39.28316 -94.63527 1932 ft 83 kts 270°
2026-05-07 16:03 39.28379 -94.64281 1838 ft 87 kts 270°
2026-05-07 16:03 39.28449 -94.65089 1712 ft 93 kts 270°
2026-05-07 16:03 39.28520 -94.65936 1581 ft 97 kts 272°
2026-05-07 16:04 39.28593 -94.66801 1446 ft 95 kts 271°
2026-05-07 16:04 39.28663 -94.67602 1323 ft 84 kts 270°
2026-05-07 16:04 39.28723 -94.68341 1217 ft 83 kts 273°
2026-05-07 16:04 39.28789 -94.69121 1103 ft 91 kts 272°
2026-05-07 16:05 39.28860 -94.69901 1033 ft 82 kts 272°
2026-05-07 16:05 39.28915 -94.70596 1014 ft 72 kts 274°
2026-05-07 16:05 39.28960 -94.71175 1009 ft 55 kts 274°
2026-05-07 16:05 39.28985 -94.71442 1006 ft 23 kts 278°
2026-05-07 16:06 39.29008 -94.71663 1004 ft 25 kts 282°
2026-05-07 16:06 39.29069 -94.71841 1006 ft 18 kts 303°
2026-05-07 16:06 39.29134 -94.71962 1007 ft 17 kts 302°
2026-05-07 16:06 39.29172 -94.72135 1010 ft 20 kts 274°
2026-05-07 16:07 39.29191 -94.72334 1010 ft 23 kts 276°
2026-05-07 16:07 39.29210 -94.72558 1009 ft 26 kts 274°
2026-05-07 16:07 39.29283 -94.72669 1006 ft 18 kts
2026-05-07 16:07 39.29452 -94.72623 1002 ft 25 kts 12°
2026-05-07 16:08 39.29675 -94.72559 996 ft 38 kts 12°
2026-05-07 16:08 39.29948 -94.72490 994 ft 39 kts
2026-05-07 16:08 39.30203 -94.72404 993 ft 37 kts 12°
2026-05-07 16:08 39.30443 -94.72330 991 ft 33 kts 12°
2026-05-07 16:09 39.30651 -94.72266 990 ft 28 kts 12°
2026-05-07 16:09 39.30855 -94.72209 985 ft 37 kts 12°
2026-05-07 16:09 39.31143 -94.72124 984 ft 44 kts 13°
2026-05-07 16:09 39.31352 -94.71999 985 ft 21 kts 100°
2026-05-07 16:10 39.31315 -94.71830 984 ft 13 kts 96°
2026-05-07 16:10 39.31361 -94.71772 983 ft 13 kts 26°
2026-05-07 16:10 39.31378 -94.71768 983 ft 0 kts 332°